This demonstration page uses our WeatherBlox Daily Observations layout. Learn more.

Left ArrowRight Arrow

Hourly Observations for August 5, 2020

Temp ( °F °C ) Dew Point ( °F °C ) Humidity (%) Winds ( mph kmh ) Pressure ( in mb ) Visibility ( mi km ) Precip ( " mm )
12:53 am 00:53 Clear 58 14.4 57 13.9 97 97 N N/A 30.08 1019 10 16 N/A
1:53 am 01:53 Clear 59 15 56 13.3 90 90 NNW 3 6 30.07 1018 10 16 N/A
2:53 am 02:53 Clear 56 13.3 54 12.2 93 93 N N/A 30.08 1019 10 16 N/A
3:53 am 03:53 Clear 56 13.3 53 11.7 90 90 N N/A 30.08 1019 10 16 N/A
4:53 am 04:53 Clear 54 12.2 53 11.7 97 97 N N/A 30.08 1019 10 16 N/A
5:53 am 05:53 Clear 53 11.7 52 11.1 96 96 N N/A 30.10 1019 10 16 N/A
6:53 am 06:53 Sunny 53 11.7 52 11.1 96 96 N N/A 30.12 1020 10 16 N/A
7:53 am 07:53 Sunny 58 14.4 56 13.3 93 93 N N/A 30.12 1020 10 16 N/A
8:53 am 08:53 Sunny 63 17.2 56 13.3 78 78 N 3 6 30.14 1021 10 16 N/A
9:53 am 09:53 Sunny 67 19.4 56 13.3 68 68 NNE 5 7 30.13 1020 10 16 N/A
10:53 am 10:53 Sunny 70 21.1 55 12.8 59 59 VRB 3 6 30.14 1021 10 16 N/A
11:53 am 11:53 Sunny 72 22.2 54 12.2 53 53 N 5 7 30.14 1021 10 16 N/A
12:53 pm 12:53 Sunny 73 22.8 53 11.7 50 50 VRB 3 6 30.14 1021 10 16 N/A
1:53 pm 13:53 Partly Cloudy 74 23.3 55 12.8 52 52 N N/A 30.14 1021 10 16 N/A
2:53 pm 14:53 Partly Cloudy 75 23.9 55 12.8 50 50 N 5 7 30.13 1020 10 16 N/A
3:53 pm 15:53 Mostly Sunny 75 23.9 55 12.8 50 50 VRB 3 6 30.12 1020 10 16 N/A
4:53 pm 16:53 Partly Cloudy 76 24.4 56 13.3 50 50 NNW 7 11 30.11 1020 10 16 N/A
5:53 pm 17:53 Mostly Sunny 76 24.4 56 13.3 50 50 NNW 6 9 30.10 1019 10 16 N/A
6:53 pm 18:53 Sunny 75 23.9 54 12.2 48 48 VRB 5 7 30.09 1019 10 16 N/A
7:53 pm 19:53 Sunny 68 20 59 15 73 73 N 5 7 30.09 1019 10 16 N/A
8:53 pm 20:53 Clear 65 18.3 58 14.4 78 78 N 5 7 30.08 1019 10 16 N/A
9:53 pm 21:53 Clear 60 15.6 57 13.9 90 90 N N/A 30.08 1019 10 16 N/A
10:53 pm 22:53 Clear 58 14.4 56 13.3 93 93 N N/A 30.10 1019 10 16 N/A
11:53 pm 23:53 Clear 59 15 56 13.3 90 90 VRB 3 6 30.10 1019 10 16 N/A

Powered by AerisWeather